Lid_Strength_Index
8 8 8 8 9 8 3 2 2 1 1 1 1 1 1 1 0 0 0 1 1 -0 0 2 2 2 2 2 3 3 4 4 4 6 6 5 5 3 4 4 4 4 3
9 8 9 9 8 7 7 5 2 2 1 1 1 1 1 1 0 1 1 0 0 0 0 1 1 1 2 3 3 3 5 4 5 6 7 8 6 5 4 3 4 4 5
9 8 8 7 6 8 7 6 5 2 2 1 0 1 2 1 1 1 1 1 1 0 0 1 1 1 3 4 4 3 4 5 6 7 5 8 9 7 4 4 4 5 5
9 7 7 7 7 6 6 7 6 4 3 1 2 1 2 3 1 1 0 0 0 0 0 1 1 2 2 3 3 3 4 4 5 7 6 4 6 7 7 5 6 6 6
8 8 8 7 6 5 5 8 7 4 3 3 2 1 2 1 1 1 1 1 0 0 0 1 1 1 2 2 3 4 4 3 4 4 6 7 7 6 7 7 5 4 5
9 8 7 7 7 6 5 4 5 5 3 3 3 2 2 2 2 2 1 1 1 0 0 1 1 1 1 1 2 2 2 3 3 2 3 4 5 6 7 8 6 5 4
9 9 8 8 8 8 7 6 4 3 3 3 3 3 2 2 2 2 3 2 2 2 4 3 3 2 1 1 0 1 1 1 1 2 2 2 3 3 4 5 5 6 4
8 9 8 8 8 8 8 7 7 7 6 6 5 4 4 5 6 6 6 6 6 6 6 6 5 5 5 4 4 3 3 2 3 3 3 2 2 2 3 4 5 6 6
9 9 8 8 8 9 8 8 8 8 8 8 8 8 7 7 8 8 8 8 8 7 8 7 7 7 6 6 6 6 6 6 6 5 5 4 3 3 3 3 4 5 7
9 9 9 9 9 9 9 9 8 9 9 9 9 9 9 9 9 9 9 9 9 9 9 9 9 8 8 8 8 8 8 8 8 7 7 7 6 6 4 4 4 4 5
9 9 9 9 9 9 9 9 9 9 9 9 9 10 10 10 10 10 10 10 10 10 10 10 10 10 10 10 10 10 10 10 9 9 8 8 7 7 7 6 6 6 5
9 9 9 9 9 9 9 10 10 10 10 9 10 10 10 11 11 11 11 11 11 11 11 11 11 11 11 11 11 11 11 11 11 10 10 9 8 9 8 8 8 7 7
9 9 9 9 9 10 10 11 11 11 10 10 11 11 11 12 12 11 11 12 12 12 12 12 12 12 12 12 11 11 11 11 11 11 11 11 10 11 10 9 9 9 8
9 9 9 10 10 11 11 12 11 11 11 11 12 12 12 12 12 12 13 13 13 13 13 13 13 13 13 12 13 13 12 12 11 11 11 11 11 11 11 11 11 10 9
9 9 9 10 11 12 12 12 12 12 12 12 12 12 12 13 13 14 15 15 15 14 15 15 14 14 13 13 13 13 13 13 13 12 12 12 11 10 10 10 10 10 10
9 9 10 11 11 12 13 12 13 12 12 13 13 13 14 15 15 15 15 15 15 15 15 15 15 15 13 11 11 11 13 13 14 14 12 12 10 10 9 8 8 9 10
10 10 10 10 11 11 11 12 12 12 13 14 15 15 16 16 16 16 16 16 16 16 16 16 16 15 15 12 11 11 13 13 13 12 12 11 11 10 10 10 9 9 9
9 9 10 11 11 11 12 12 12 13 14 15 16 16 16 17 16 17 17 17 16 17 17 16 16 16 14 12 11 12 13 13 13 12 11 10 10 10 10 10 11 11 10
8 9 10 10 11 12 13 14 15 15 15 16 16 16 17 18 18 19 18 17 18 17 18 16 17 17 14 12 12 12 12 12 11 11 10 10 10 10 9 11 11 11 10
9 10 11 12 13 13 14 15 15 16 16 16 16 16 17 19 20 18 19 18 18 15 15 14 13 13 13 12 11 10 11 12 11 11 10 10 9 9 9 11 11 11 10
11 11 12 13 14 14 15 15 16 16 16 17 17 18 18 20 20 19 18 19 19 17 19 16 15 13 13 14 9 9 10 11 11 11 11 11 10 9 9 8 9 8 8
12 13 14 15 15 15 15 16 16 17 18 19 19 21 23 20 19 23 22 22 21 21 19 18 16 15 14 10 9 9 9 9 11 11 11 11 9 8 7 8 7 7 8
13 14 15 16 16 16 15 17 18 18 20 22 25 25 24 22 22 24 23 22 22 21 18 17 15 13 12 10 9 9 9 9 10 10 10 9 8 7 7 7 6 7 9
15 15 15 16 17 17 17 18 20 21 25 26 25 23 24 24 23 20 19 23 22 19 18 16 15 14 13 11 11 10 10 10 10 9 9 8 7 6 7 8 8 8 8
15 14 15 16 17 18 20 21 22 23 23 25 23 24 22 24 22 20 20 19 18 18 17 14 13 13 13 12 10 10 10 10 8 9 9 9 9 9 9 12 12 11 10
16 16 17 17 19 21 22 24 25 25 27 25 23 23 23 23 21 20 19 15 13 12 12 11 12 12 10 10 9 8 9 8 7 13 10 10 10 10 10 15 15 14 12